Meath Environmental Platform

Observations

Time Sensor AQI SAQ Temp °C Hum % Pres Pa CO μg/m³ H₂S μg/m³ NO μg/m³ NO₂ μg/m³ O₃ μg/m³ SO₂ μg/m³ CO₂e PPM VOC PPM PM1 μg/m³ PM2.5 μg/m³ PM4 μg/m³ PM10 μg/m³ TPS µm
Tuesday 11 August 2026
14:52 Trim Patrick St 2 35.8 23 69,650 0 0 0.34 14.68 137.13 21.38 2.86 8.94 9.84
14:51 Trim Market St 2 43.4 15 67,500 0 0 0 15.24 109.68 7.02 0 3.94 4.33
14:51 Trim Patrick St 2 35.8 25 69,661 0 0 0.3 13.15 77.31 20.49 2 8.83 9.71
14:50 Trim Market St 2 43.4 15 67,471 0 0 0 15.27 91.59 7.93 0 3.94 4.34
14:50 Trim Patrick St 2 35.7 23 69,675 0 0 0.32 13.15 105.86 22.49 2 8.95 9.84
14:49 Trim Market St 2 43.5 15 67,467 0 0 0 15.25 121.06 8.67 0 3.38 3.72
14:49 Trim Patrick St 2 35.6 23 69,665 0 0 0.36 23.98 116.62 19.77 2 8.14 8.95
14:48 Trim Market St 2 43.5 15 67,483 0 0 0 15.23 120.41 8.35 0.71 3.95 4.34
14:48 Trim Patrick St 2 35.5 22 69,654 0 0 0.35 13.86 87.44 18.6 2.86 8.99 9.89
14:47 Trim Patrick St 2 35.4 22 69,642 0 0 0.37 15.46 112.53 21.73 2 8.97 9.87
14:46 Trim Patrick St 2 35.4 23 69,624 0 0 0.36 14.11 85.6 20.19 2 8.1 8.91
14:45 Trim Patrick St 2 35.3 24 69,628 0 0 0.4 13.12 134.17 22.53 2 8.89 9.78
14:44 Trim Market St 2 43.5 15 67,500 0 0 0 15.06 106.12 7.57 0 3.37 3.71
14:43 Trim Market St 2 43.5 15 67,485 0 0 0 15.05 104.46 7.42 0 3.94 4.33
14:43 Trim Patrick St 2 35.1 23 69,602 0 0 0.49 13.89 112.13 19.91 2 9.76 10.74
14:42 Trim Market St 2 43.5 15 67,479 0 0 0 16.05 99.49 5.63 0.71 4.5 4.95
14:42 Trim Patrick St 2 35.1 22 69,577 0 0 0.55 15.24 101.25 18.87 2 8.98 9.87
14:41 Trim Patrick St 2 35 24 69,597 0 0 0.48 10.05 84.91 21.29 2 8.04 8.84
14:40 Trim Patrick St 2 35 24 69,597 0 0 0.54 16.4 113.03 19.13 2 8.9 9.79
14:39 Trim Patrick St 2 34.9 24 69,601 0 0 0.53 15.22 117.36 19.35 2 8.03 8.84